カタログに戻る

COSMOS 394

運用中軍事VLEO
NORAD 4922·PAYLOAD·🇷🇺 Russia

打ち上げ Feb 9, 1971 から Plesetsk Cosmodrome

Loading…

次のパス (今後24時間)

TLE

最新Source: Space-Track

元期: Sep 14, 2026, 11:56 UTC

1 04922U 71010A   26257.49760559  .00004291  00000-0  82317-4 0  9994
2 04922  65.8209 342.5066 0006446 231.2443 128.8132 15.49398594 71857

AllMySatでCOSMOS 394をリアルタイム追跡

Download on the App Store